Overview Statistics Trail Chart Weather Telemetry Raw packets
 

This is the latest recevied weather packets stored in our database for station/object WX0ABE-13. If no packets are shown the sender has not sent any weather packets the latest 10 day(s).

<< 1 2 3 4 5 >>
Time Temp. Humidity Pressure Rain* Wind** Luminosity Snow
1788376878 32.78° C 29% 1014.9 hPa 0 mm - 661 W/m² -
1788376574 33.33° C 26% 1014.9 hPa 0 mm - 687 W/m² -
1788376274 33.89° C 28% 1014.9 hPa 0 mm - 670 W/m² -
1788375969 33.89° C 25% 1015 hPa 0 mm - 688 W/m² -
1788375664 32.78° C 28% 1015.2 hPa 0 mm - 723 W/m² -
1788375360 33.33° C 26% 1015 hPa 0 mm - 704 W/m² -
1788375056 32.78° C 28% 1015.4 hPa 0 mm - 688 W/m² -
1788374751 32.22° C 28% 1015.3 hPa 0 mm - 672 W/m² -
1788374446 32.78° C 28% 1015.6 hPa 0 mm - 687 W/m² -
1788374142 32.78° C 28% 1015.6 hPa 0 mm - 710 W/m² -
1788373838 32.78° C 29% 1015.7 hPa 0 mm - 704 W/m² -
1788373534 32.78° C 28% 1015.7 hPa 0 mm - 697 W/m² -
1788373231 32.22° C 31% 1015.7 hPa 0 mm - 680 W/m² -
1788372926 32.78° C 29% 1015.9 hPa 0 mm - 661 W/m² -
1788372620 32.22° C 29% 1015.9 hPa 0 mm - 653 W/m² -
1788372320 32.22° C 28% 1016.1 hPa 0 mm - 648 W/m² -
1788372017 32.22° C 32% 1016.1 hPa 0 mm - 641 W/m² -
1788371716 31.67° C 33% 1015.9 hPa 0 mm - 638 W/m² -
1788371413 31.67° C 32% 1016.1 hPa 0 mm - 632 W/m² -
1788371109 31.67° C 34% 1016.2 hPa 0 mm - 630 W/m² -
1788370804 31.67° C 36% 1016.1 hPa 0 mm - 624 W/m² -
1788370503 31.11° C 37% 1016.3 hPa 0 mm - 618 W/m² -
1788370198 31.11° C 37% 1016.2 hPa 0 mm - 612 W/m² -
1788369898 31.67° C 38% 1016.2 hPa 0 mm - 605 W/m² -
1788369593 31.11° C 38% 1016.5 hPa 0 mm - 600 W/m² -

* Rain latest hour (hover to see other rain measurements)
** Current wind speed in m/s (hover to see current wind gust speed)